Greenland, New Hampshire, United States (03840)
Lat: 43.04N, Lon: 70.83W
Wx Zone: NHZ014
Local Info
Past Weather Observations for Friday, May 20, 2016

NOTE: This archive is for the closest National Weather Service station to Greenland. Information may differ from the station used for current weather conditions.

Click here for Long-term Archive

Time Weather Temperature Dewpoint Humidity Pressure Winds Precip Visibility
23:58
Partly Cloudy
57°F / 14°C 45°F / 7°C 63% 30.15 in
(1021 mb)
SW 4.6 mph
(SW 7 kph)
- 10SM
22:58
Partly Cloudy
61°F / 16°C 45°F / 7°C 55% 30.15 in
(1021 mb)
SW 5.8 mph
(SW 9 kph)
- 10SM
21:58
Partly Cloudy
59°F / 15°C 45°F / 7°C 59% 30.15 in
(1021 mb)
SW 11.5 mph
(SW 19 kph)
- 10SM
20:58
Partly Cloudy
61°F / 16°C 43°F / 6°C 52% 30.15 in
(1021 mb)
SSE 9.2 mph
(SSE 15 kph)
- 10SM
19:58
Partly Cloudy
63°F / 17°C 45°F / 7°C 52% 30.12 in
(1020 mb)
SSE 5.8 mph
(SSE 9 kph)
- 10SM
18:58
Partly Cloudy
66°F / 19°C 45°F / 7°C 46% 30.12 in
(1020 mb)
S 6.9 mph
(S 11 kph)
- 10SM
17:58
Partly Cloudy
70°F / 21°C 46°F / 8°C 43% 30.12 in
(1020 mb)
S 11.5 mph
(S 19 kph)
- 10SM
16:58
Partly Cloudy
70°F / 21°C 45°F / 7°C 40% 30.12 in
(1020 mb)
SSE 9.2 mph
(SSE 15 kph)
- 10SM
15:58
Partly Cloudy
72°F / 22°C 43°F / 6°C 36% 30.12 in
(1020 mb)
Variable 6.9 mph
(Variable 11 kph)
- 10SM
14:58
Partly Cloudy
72°F / 22°C 45°F / 7°C 38% 30.12 in
(1020 mb)
SE 15 mph
(SE 24 kph)
- 10SM
14:33
Partly Cloudy
72°F / 22°C 45°F / 7°C 38% 30.12 in
(1020 mb)
SE 9.2 mph
(SE 15 kph)
- 10SM
13:58
Partly Cloudy
72°F / 22°C 45°F / 7°C 38% 30.15 in
(1021 mb)
SE 8.1 mph
(SE 13 kph)
- 10SM
12:58
Partly Cloudy
72°F / 22°C 41°F / 5°C 33% 30.15 in
(1021 mb)
S 4.6 mph
(S 7 kph)
- 10SM
11:58
Partly Cloudy
72°F / 22°C 43°F / 6°C 36% 30.18 in
(1022 mb)
Variable 5.8 mph
(Variable 9 kph)
- 10SM
10:58
Mostly Cloudy
68°F / 20°C 45°F / 7°C 43% 30.18 in
(1022 mb)
S 1.2 mph
(S 2 kph)
- 10SM
09:58
Partly Cloudy
68°F / 20°C 46°F / 8°C 46% 30.18 in
(1022 mb)
Variable 1.2 mph
(Variable 2 kph)
- 10SM
08:58
Partly Cloudy
64°F / 18°C 45°F / 7°C 49% 30.18 in
(1022 mb)
NNW 6.9 mph
(NNW 11 kph)
- 10SM
07:58
Clear
63°F / 17°C 46°F / 8°C 56% 30.18 in
(1022 mb)
Variable 5.8 mph
(Variable 9 kph)
- 10SM
06:58
Partly Cloudy
57°F / 14°C 46°F / 8°C 67% 30.18 in
(1022 mb)
W 4.6 mph
(W 7 kph)
- 10SM
05:58
Partly Cloudy
52°F / 11°C 46°F / 8°C 82% 30.15 in
(1021 mb)
NNW 4.6 mph
(NNW 7 kph)
- 10SM
04:58
Partly Cloudy
48°F / 9°C 45°F / 7°C 87% 30.12 in
(1020 mb)
WNW 3.5 mph
(WNW 6 kph)
- 10SM
03:58
Partly Cloudy
48°F / 9°C 46°F / 8°C 94% 30.12 in
(1020 mb)
WNW 3.5 mph
(WNW 6 kph)
- 10SM
02:58
Partly Cloudy
50°F / 10°C 46°F / 8°C 88% 30.12 in
(1020 mb)
W 2.3 mph
(W 4 kph)
- 10SM
01:58
Mostly Cloudy
52°F / 11°C 48°F / 9°C 88% 30.12 in
(1020 mb)
SSW 3.5 mph
(SSW 6 kph)
- 10SM
00:58
Mostly Cloudy
52°F / 11°C 48°F / 9°C 88% 30.12 in
(1020 mb)
W 3.5 mph
(W 6 kph)
- 10SM
Time Weather Temperature Dewpoint Humidity Pressure Winds Precip Visibility


Weather for websites

WeatherForYou.com, LLC is not responsible for any damages or problems caused by this service. Current weather conditions are obtained from the closest station including government and personal stations which may have varying degrees of accuracy. Weather forecasts are derived from the NOAA NDFD. Like all things, this site belongs to Jesus Christ... He just trusts us to maintain it. If you have any questions or comments email webmaster@weatherforyou.com

Copyright © 2016, WeatherForYou.com LLC. All rights reserved.